{"data":{"norad_id":40349,"intl_designator":"2014-083B","name":"O3B FM11","alt_names":[],"object_type":"PAYLOAD","status":"ACTIVE","operator":null,"country":"O3B","launch_date":"2014-12-18","launch_site_code":"FRGUI","launch_vehicle":null,"mission":null,"orbit_class":"UNKNOWN","rcs_meters":12.2583,"size_class":null,"mass_kg":null,"dimensions":null,"purposes":["comms"],"wikipedia_slug":null,"has_3d_model":false,"image_url":null,"decayed_at":null,"tle_current":{"epoch":"2026-09-19T22:05:02.319072Z","epoch_age_seconds":64556,"freshness":"FRESH","line1":"1 40349U 14083B   26262.92016573 -.00000027  00000+0  00000+0 0  9995","line2":"2 40349   0.0538 348.1778 0002170 176.0806 195.7506  5.00115588214658","mean_motion":5.00115588,"eccentricity":0.000217,"inclination_deg":0.0538,"raan_deg":348.1778,"arg_perigee_deg":176.0806,"mean_anomaly_deg":195.7506,"bstar":0,"rev_number":21465,"period_min":287.93343669984,"perigee_km":8062.7541703752,"apogee_km":8069.0228774526,"semimajor_km":14444.025523914,"source":"CELESTRAK","updated_at":"2026-09-20T09:00:35.683528Z"}}}